GFSFLT2_925_rhum_093.txt.gz
RH
97 94 90 90 88 88 92 92 94 94 93 93 88 85 84 84 84 83 83 82 79 79 78 79 76 74 77
100 100 100 100 98 96 92 88 79 65 63 71 84 84 84 78 82 79 78 82 87 87 83 82 84 82 80
99 98 96 92 81 72 67 63 59 58 58 62 60 57 56 55 57 86 91 92 93 93 91 89 88 85 81
87 86 81 74 69 73 70 63 58 54 51 46 37 34 37 35 44 50 56 55 73 89 92 91 89 85 83
82 80 83 78 73 66 65 58 52 38 39 42 46 47 46 46 48 49 50 52 76 94 93 90 86 85 85
68 71 77 75 67 70 69 65 44 49 74 71 55 56 54 54 54 52 51 55 82 93 92 97 94 88 86
63 67 73 70 67 67 63 70 76 82 82 70 58 62 57 55 52 50 62 96 96 92 93 95 93 90 88
65 65 60 57 61 74 81 80 85 81 75 79 76 74 61 59 62 92 98 97 95 87 86 94 95 94 91
70 82 84 93 91 87 90 93 75 80 85 91 90 87 74 66 64 85 96 91 71 55 74 96 97 98 92
57 57 58 94 77 77 78 90 93 87 93 98 98 94 87 68 64 62 61 58 55 57 58 80 99 94 93
64 61 67 78 82 86 88 89 99 96 94 99 100 97 94 92 87 69 67 61 61 62 62 70 71 95 96
65 75 82 89 93 93 95 98 96 99 99 96 100 100 99 94 88 88 91 94 87 77 77 64 66 72 80
76 78 81 88 92 96 99 96 96 99 98 97 97 100 100 99 97 96 98 88 87 84 72 90 86 82 84
77 85 90 94 98 97 97 100 100 100 88 88 88 91 96 100 100 100 98 99 77 88 98 98 92 89 89
86 90 92 99 100 99 96 100 100 100 100 90 84 84 85 86 100 98 96 98 97 93 94 99 89 93 93
92 96 96 98 99 97 99 100 100 99 100 100 92 93 94 81 75 73 89 98 87 95 99 100 95 82 90
83 84 88 98 92 100 98 100 98 99 100 100 91 100 93 88 79 89 99 99 98 94 95 97 97 87 92

GFSFLT2_925_rhum_096.txt.gz
RH
98 94 92 99 98 99 86 89 89 86 87 90 92 89 86 85 86 87 86 84 80 80 81 80 78 76 81
99 99 100 98 99 98 92 84 80 77 77 77 82 82 79 73 67 67 80 80 85 90 90 87 85 83 80
98 99 96 91 84 79 75 68 64 58 55 55 54 55 55 52 48 42 66 90 92 94 92 92 90 88 83
82 83 82 83 79 72 66 64 61 57 50 44 40 45 32 32 29 35 45 54 58 78 91 93 91 90 86
82 77 79 72 64 64 58 54 51 56 50 48 53 55 58 54 45 46 48 50 74 94 96 94 90 90 86
81 66 63 63 62 55 55 52 40 58 60 52 64 60 62 64 64 51 51 61 84 76 92 92 95 93 92
49 46 53 58 65 73 64 61 59 59 74 59 64 58 61 62 57 49 48 55 79 93 94 94 94 93 93
66 69 71 71 71 63 78 80 73 73 79 73 65 62 63 68 63 63 83 94 95 96 95 94 96 96 95
58 58 58 63 78 84 84 77 68 63 78 76 73 78 75 74 68 69 93 94 92 72 69 85 83 97 93
70 61 63 90 89 85 94 94 83 79 86 92 93 89 87 77 74 74 73 75 67 54 69 72 76 91 84
62 65 73 88 87 88 92 95 99 93 91 98 100 99 93 90 83 83 85 82 77 80 83 83 63 71 92
65 71 76 85 96 98 99 99 100 100 99 99 100 100 98 97 86 86 88 90 91 91 88 88 89 92 94
68 80 92 99 96 95 95 95 95 96 99 98 99 99 99 100 97 95 95 91 94 98 96 98 95 91 91
75 83 99 100 99 100 100 100 100 100 99 88 89 96 100 100 100 100 99 97 94 98 96 100 99 95 91
85 90 92 92 97 100 98 100 99 98 97 100 100 100 100 100 100 96 95 97 96 95 100 100 97 95 91
91 91 90 91 90 98 98 99 98 96 97 99 100 100 93 88 83 87 96 95 94 99 98 96 95 92 89
94 94 94 92 90 88 91 96 94 91 92 97 100 99 89 81 69 83 97 95 95 93 91 92 92 92 91

GFSFLT2_925_rhum_099.txt.gz
RH
99 96 94 95 89 95 88 92 89 89 86 83 81 82 86 85 84 84 89 86 82 80 83 83 79 77 77
99 100 100 100 100 99 90 84 82 84 85 84 81 80 80 78 68 61 57 70 82 89 91 90 86 82 82
97 98 98 96 90 80 78 77 71 67 60 56 54 54 52 50 46 44 39 43 91 93 94 93 92 90 86
85 88 85 83 77 77 71 65 62 59 53 47 40 37 32 30 34 32 29 39 51 66 90 94 94 93 90
88 83 82 80 72 67 62 58 53 48 46 48 47 51 55 58 54 47 44 45 48 84 95 96 94 94 93
79 82 68 65 65 60 54 53 48 49 52 52 53 57 61 61 64 57 50 44 48 71 90 95 95 96 95
65 50 58 57 57 60 62 60 61 61 55 60 58 60 57 60 58 53 46 44 45 70 94 95 93 88 93
57 58 60 58 52 50 56 68 68 69 66 73 64 65 61 64 67 62 54 80 91 96 90 96 95 95 96
55 52 53 59 69 72 81 75 72 64 75 76 76 81 72 72 72 64 59 88 93 92 82 91 94 94 87
43 45 52 62 66 78 88 92 83 78 82 88 94 92 92 80 71 72 70 75 79 82 70 88 90 93 71
58 62 70 86 73 80 85 98 95 88 93 89 96 97 92 90 86 83 82 79 78 76 75 87 88 90 77
59 64 70 77 88 94 97 97 98 99 98 97 94 95 94 92 92 86 88 88 81 80 86 84 94 95 94
66 71 85 93 97 98 89 91 88 92 100 98 97 97 97 95 96 98 100 89 85 86 80 97 99 94 90
70 80 93 100 96 95 99 99 100 100 98 99 97 100 100 100 100 99 100 99 84 89 94 99 100 99 92
76 88 94 94 93 97 98 98 94 95 94 94 93 97 100 100 100 100 99 96 98 93 96 98 100 96 91
84 90 91 91 93 88 95 94 94 93 93 91 94 93 95 92 86 88 94 98 93 90 91 98 94 85 91
84 91 91 91 92 91 91 88 91 92 92 90 90 94 94 94 76 76 83 87 99 97 93 95 96 91 94

GFSFLT2_925_rhum_102.txt.gz
RH
97 98 95 91 91 90 90 89 87 94 95 92 86 81 82 83 84 83 81 78 78 80 85 85 83 80 78
100 100 97 100 97 96 91 89 86 85 86 85 84 83 81 79 78 67 56 46 53 82 90 92 90 87 86
99 99 98 99 98 90 83 79 79 72 67 63 59 57 55 52 48 43 40 35 44 85 79 90 93 92 89
93 95 92 91 85 79 75 69 63 60 56 48 42 39 35 35 42 48 28 26 39 54 71 86 96 95 93
85 84 82 82 79 78 71 66 59 55 45 38 42 43 45 59 54 51 44 41 45 49 84 95 96 95 96
85 82 81 76 72 66 61 53 53 51 43 37 52 54 54 60 60 60 56 47 45 48 61 71 86 84 98
78 78 69 66 65 59 55 53 55 61 57 46 58 55 58 59 57 57 56 49 43 45 70 92 83 93 82
60 52 53 52 52 51 54 52 61 64 59 61 69 64 62 64 66 66 59 57 79 94 90 90 96 95 96
53 52 54 56 47 47 60 63 74 71 70 67 81 77 64 61 68 69 59 72 94 97 85 77 94 97 92
39 40 43 55 64 67 74 77 84 72 78 74 88 84 76 84 81 71 68 66 83 86 87 88 92 91 89
51 50 64 70 55 58 65 70 88 86 94 84 93 95 92 91 83 76 78 76 74 74 71 71 86 96 94
57 60 69 79 80 79 75 80 88 95 95 96 89 95 92 90 90 83 74 73 73 68 70 72 71 75 91
59 63 68 76 88 95 96 88 85 85 96 100 98 97 95 94 93 93 99 87 77 74 74 86 91 92 83
66 70 80 92 98 93 95 98 100 99 99 99 99 100 100 100 98 100 100 100 79 78 86 96 98 99 100
76 76 85 88 95 92 96 97 97 93 94 92 93 92 94 98 100 100 100 99 78 83 98 91 88 84 82
64 77 88 92 92 94 88 92 91 91 90 90 89 94 90 86 91 98 100 96 73 87 92 93 82 71 83
74 77 88 91 93 95 93 87 89 88 87 89 90 86 98 94 77 69 90 94 100 100 90 74 83 85 87

GFSFLT2_925_rhum_105.txt.gz
RH
98 98 95 93 93 88 89 96 97 98 96 94 93 90 84 82 84 85 85 82 77 74 82 83 85 82 80
100 99 96 96 91 89 89 89 87 86 88 85 83 84 85 84 82 81 72 58 47 44 39 73 89 88 87
100 100 99 100 100 98 92 86 81 78 79 79 76 73 70 62 57 51 43 36 34 31 45 71 87 91 90
99 99 97 99 99 93 83 79 74 62 59 56 52 48 45 42 45 62 39 24 25 47 72 73 77 93 95
94 93 90 93 92 84 78 71 66 61 58 44 38 38 37 41 46 47 42 39 43 62 84 95 88 94 97
89 85 84 82 84 80 74 69 60 56 49 39 41 46 49 49 55 56 56 53 51 56 85 95 97 82 91
82 82 81 78 77 71 66 58 49 51 52 42 49 55 57 60 62 58 59 57 50 47 60 96 91 89 94
79 78 74 70 67 66 60 53 58 58 56 43 69 64 64 64 68 66 64 57 77 73 98 90 89 95 93
59 55 53 53 50 46 52 53 66 69 67 60 74 73 68 63 66 70 66 59 96 100 98 92 94 96 95
59 62 59 55 47 44 43 49 74 76 75 72 85 74 70 85 78 72 68 66 83 89 91 91 97 93 83
41 46 54 61 55 58 66 65 80 86 85 80 84 89 91 87 77 78 78 78 75 73 74 73 72 99 95
52 53 65 71 61 61 60 67 83 80 84 87 84 90 93 92 86 88 84 69 66 67 73 72 72 78 83
57 57 59 70 77 78 82 84 85 82 86 94 99 97 95 95 95 92 99 76 75 71 69 68 73 80 73
59 59 65 77 86 89 86 88 90 93 99 100 100 100 100 100 100 100 100 99 89 74 75 75 76 89 82
62 67 74 84 91 94 93 91 97 94 95 97 98 98 93 95 96 98 100 100 89 76 85 80 73 71 59
67 74 76 83 86 87 93 90 95 94 92 92 92 95 98 84 92 97 100 100 71 84 92 100 90 57 52
52 58 70 82 90 92 95 94 90 89 87 87 90 95 98 97 68 80 87 74 86 93 85 74 69 60 69

GFSFLT2_925_rhum_108.txt.gz
RH
99 100 96 95 96 94 95 94 93 98 98 94 93 92 90 88 86 88 86 86 83 80 78 71 81 83 81
100 100 98 97 98 93 92 92 90 90 93 93 90 86 87 88 89 87 83 80 67 63 49 38 63 86 85
100 100 100 98 98 96 90 91 89 84 86 88 89 88 84 81 76 71 63 53 42 35 26 34 80 90 91
100 100 99 100 99 98 93 89 80 78 73 68 65 62 61 60 64 60 46 34 28 36 40 62 66 83 96
100 100 99 99 99 97 92 83 77 68 61 58 52 43 36 35 42 47 41 33 32 48 82 92 83 80 93
99 96 96 96 99 94 86 76 72 67 62 55 40 37 40 41 42 52 54 52 48 58 83 98 86 81 68
96 90 84 81 82 87 82 74 57 55 56 41 37 42 49 52 63 62 60 57 56 55 75 93 95 83 92
86 82 80 78 79 79 78 68 61 56 52 42 56 60 59 62 69 75 64 62 63 76 55 93 92 89 98
79 78 73 72 72 70 65 62 63 60 56 52 67 71 68 67 69 76 70 61 86 98 98 97 99 97 93
68 58 53 54 55 54 49 51 58 66 63 62 76 74 73 76 73 75 72 66 91 98 93 95 97 96 82
56 56 57 50 46 47 47 48 47 62 70 72 84 82 74 88 86 83 77 75 72 76 76 75 74 92 88
41 48 55 57 57 56 58 62 68 75 72 82 77 78 84 84 76 84 86 79 70 71 74 77 73 71 70
49 49 52 62 66 64 68 68 74 81 87 87 84 85 90 89 92 89 86 78 83 74 81 76 62 63 63
50 54 59 66 75 78 84 87 85 83 84 83 88 98 100 100 99 100 100 96 92 95 87 66 64 63 63
63 60 59 66 76 86 93 90 87 91 93 96 98 99 98 96 96 92 90 98 100 72 73 75 48 52 53
71 62 61 70 82 93 97 96 89 93 96 95 95 97 98 77 78 94 98 100 88 77 84 92 75 45 46
66 64 64 72 82 92 87 96 93 89 89 89 92 95 100 98 67 88 84 76 79 81 73 74 71 51 57

GFSFLT2_925_rhum_111.txt.gz
RH
98 98 96 98 95 96 95 96 97 100 98 98 96 93 92 90 89 91 86 88 87 83 83 80 84 83 81
100 100 98 100 96 95 95 95 94 96 95 93 92 91 89 90 91 87 86 84 81 77 63 58 52 81 83
98 100 100 99 100 100 97 95 92 90 88 88 91 91 88 87 87 85 82 75 63 51 37 29 40 83 90
100 100 99 100 100 97 96 94 90 85 87 89 89 87 82 74 72 65 59 50 40 34 26 37 55 74 89
100 100 100 100 98 98 96 91 87 80 77 68 64 61 59 58 60 65 59 43 30 42 87 78 68 68 80
100 99 100 99 99 98 97 90 86 80 67 62 59 52 41 36 37 42 46 50 55 65 93 96 92 76 70
100 99 97 96 96 100 96 88 72 68 66 61 55 44 40 43 48 55 62 66 70 68 71 91 97 94 80
98 94 92 85 85 84 88 82 71 61 58 43 46 44 46 52 67 79 72 63 60 60 55 89 96 98 88
88 90 90 85 84 84 82 76 69 64 60 46 54 62 62 64 71 88 75 66 61 94 98 99 99 97 98
75 74 76 77 76 72 71 70 57 60 57 54 65 70 72 69 69 76 75 69 82 98 99 96 97 96 88
65 63 62 56 54 55 54 58 51 43 51 58 74 76 67 90 81 76 75 73 71 90 95 92 86 82 81
48 49 51 55 52 53 56 53 52 52 52 63 66 72 72 85 81 84 84 80 76 76 77 77 73 71 70
47 44 45 55 60 58 58 62 72 78 78 78 77 73 72 72 79 85 85 83 81 76 74 76 74 67 57
50 52 56 66 74 71 72 77 77 83 83 85 81 80 82 84 85 82 81 74 82 87 90 85 74 58 57
57 59 61 65 75 78 84 86 83 79 84 85 90 94 96 93 96 91 84 85 79 76 80 75 55 49 48
72 68 65 68 73 84 91 93 90 87 88 95 95 99 100 81 79 88 90 90 85 75 74 77 50 38 43
57 76 75 69 85 91 93 96 94 91 85 91 95 97 100 98 63 84 76 62 71 71 64 71 71 48 47

GFSFLT2_925_rhum_114.txt.gz
RH
98 96 96 96 96 98 98 99 98 99 97 97 93 95 94 93 92 90 90 94 92 86 91 89 86 84 80
100 98 99 99 100 100 100 100 97 96 95 98 96 92 90 90 92 92 88 86 84 93 84 68 71 84 81
99 100 100 100 100 100 100 100 98 98 94 91 89 92 92 92 90 89 88 84 81 76 61 44 41 80 85
100 100 100 100 100 99 100 100 95 91 92 90 94 95 90 89 89 86 82 74 64 50 34 25 32 84 94
100 100 100 100 98 98 99 97 96 91 90 88 86 88 83 78 78 70 65 57 43 40 35 43 63 73 83
100 100 99 99 100 100 99 97 95 91 84 80 72 66 61 54 47 51 54 51 53 48 91 95 97 76 80
100 100 100 100 99 100 99 97 90 83 78 70 65 61 53 43 38 40 50 60 82 89 94 98 98 85 78
96 99 98 100 99 100 100 98 89 76 72 62 63 58 49 43 45 65 89 88 84 81 88 97 97 97 90
88 90 94 95 93 93 96 92 79 68 66 48 51 52 51 54 65 88 91 71 63 59 88 76 96 99 96
76 76 85 85 89 90 85 83 72 74 66 57 54 54 67 69 77 87 89 71 66 92 92 97 99 98 92
64 65 66 61 66 70 68 73 70 46 42 58 58 68 68 85 78 78 84 75 69 90 98 99 99 95 86
49 46 49 51 47 47 48 52 56 53 44 45 54 64 69 86 86 81 78 76 74 75 91 94 89 80 73
50 47 44 52 60 57 55 57 62 62 68 64 67 64 67 60 70 84 87 83 79 76 74 73 72 72 71
57 52 54 55 65 68 66 67 71 81 87 88 85 81 74 70 67 68 74 70 80 80 78 77 70 70 66
65 59 58 60 68 78 80 80 84 80 80 80 80 82 81 78 79 72 71 76 74 79 81 78 72 72 67
65 72 69 66 67 76 85 88 90 86 80 85 92 99 98 72 73 78 76 71 72 79 82 72 50 46 43
61 58 66 76 78 78 84 90 95 95 92 87 95 96 100 94 60 89 77 62 72 84 80 74 60 39 44

GFSFLT2_925_rhum_117.txt.gz
RH
100 96 98 96 95 99 99 100 100 99 100 99 96 93 93 92 96 99 100 97 96 97 91 90 90 89 86
95 95 100 100 100 100 100 100 100 99 100 96 95 94 94 93 92 94 95 96 93 96 95 92 90 87 81
99 98 99 100 100 100 100 99 100 100 100 97 93 92 93 95 95 96 92 88 86 85 82 72 81 85 81
100 100 100 100 100 100 100 100 100 100 99 94 97 94 93 96 95 93 87 84 82 78 65 49 51 83 86
94 100 100 100 99 99 100 100 99 96 97 97 99 96 92 95 93 88 82 74 66 58 44 33 42 91 95
98 100 99 100 100 100 100 99 98 97 96 94 94 92 88 84 79 76 72 67 53 45 68 76 94 97 98
100 100 100 100 100 100 100 100 95 92 89 88 82 76 71 64 56 49 48 53 53 66 88 94 96 96 97
93 95 97 99 100 100 100 100 99 94 91 78 75 72 64 58 48 42 56 63 71 89 94 96 99 98 97
83 83 87 92 99 100 100 100 96 87 83 62 64 66 61 55 47 50 89 94 93 93 96 97 96 99 100
77 73 77 79 90 94 94 98 84 83 75 63 56 53 69 58 58 79 92 94 89 67 93 96 97 97 100
60 59 58 57 57 70 82 84 84 75 61 66 60 60 62 81 74 87 94 85 74 80 94 94 97 97 99
51 44 41 42 42 42 44 54 65 65 56 53 48 53 66 94 88 78 90 88 77 79 94 99 98 99 96
55 46 44 44 47 51 51 53 58 57 59 58 59 59 64 66 82 85 82 79 79 75 79 91 93 91 85
65 56 50 51 54 61 62 60 62 70 78 80 78 77 70 69 64 68 79 76 77 76 75 74 71 69 68
58 60 58 57 59 66 73 72 74 73 73 79 83 82 80 78 74 68 66 71 66 74 82 78 69 65 65
58 58 63 62 63 68 77 80 84 83 81 75 81 96 88 62 61 68 69 71 67 72 76 81 64 50 54
70 64 60 66 73 74 75 81 89 86 89 86 88 99 90 79 59 85 82 74 72 76 78 89 64 41 39

GFSFLT2_925_rhum_120.txt.gz
RH
99 98 94 93 96 97 97 97 100 99 100 99 100 100 97 100 97 100 99 97 98 99 99 94 93 94 93
79 93 86 86 96 100 99 100 100 100 100 100 100 100 98 97 96 97 100 100 100 94 92 97 94 93 84
93 97 99 95 99 100 100 99 100 100 100 100 100 99 98 98 96 98 100 100 94 98 94 94 93 90 82
89 96 97 96 100 100 99 100 100 100 100 99 99 98 98 99 100 98 95 93 91 93 86 80 83 87 82
94 97 99 98 100 100 100 100 100 100 100 100 99 99 99 100 98 97 91 88 86 84 74 61 55 72 88
99 96 100 100 100 100 100 100 99 99 99 99 100 100 98 94 96 91 86 80 72 68 65 56 44 73 96
97 99 99 99 100 100 100 100 99 97 100 99 99 99 97 92 89 83 78 77 70 60 78 86 81 96 97
96 98 99 99 100 100 100 100 100 99 97 93 92 94 89 77 73 68 56 54 65 70 81 95 96 94 97
79 78 78 83 92 100 100 100 100 98 99 91 84 82 75 70 63 61 48 74 82 88 93 96 94 96 98
82 78 70 69 82 91 98 100 97 94 90 89 69 66 68 65 71 65 72 93 96 95 95 97 95 99 98
74 73 63 51 48 57 79 86 92 86 75 80 68 69 73 86 83 70 87 94 95 96 96 95 95 96 94
65 60 60 62 42 40 42 51 68 80 75 78 64 71 84 90 81 75 90 98 90 83 86 94 96 97 97
67 70 53 45 42 46 48 50 53 53 56 65 65 60 60 86 95 93 99 92 92 81 85 93 97 99 99
76 77 57 47 49 53 58 61 66 83 66 68 68 66 70 75 83 93 96 96 86 84 79 80 92 96 96
76 78 75 71 64 60 63 77 94 93 96 76 76 80 78 81 93 81 92 92 74 83 84 85 78 74 72
76 77 76 81 83 82 83 97 94 91 94 99 98 99 92 64 55 81 94 94 86 72 76 97 95 75 60
74 73 71 75 87 97 98 96 92 93 95 100 99 95 84 75 73 80 92 91 92 98 93 95 87 74 68

GFSFLT2_925_rhum_123.txt.gz
RH
91 90 87 90 92 95 97 100 100 99 99 99 100 100 99 100 100 99 94 94 93 91 89 89 95 99 86
77 74 85 90 98 99 99 98 98 99 100 100 100 100 99 99 99 99 100 99 99 97 96 94 98 96 85
88 85 88 91 93 98 100 100 99 99 100 99 99 100 99 98 98 97 99 100 100 98 97 98 100 98 87
83 92 91 98 88 92 94 99 100 99 99 99 100 99 98 99 98 99 100 100 96 95 93 93 95 94 86
91 89 90 95 95 100 99 99 98 99 99 100 99 100 100 100 100 98 98 95 92 92 90 87 87 87 86
96 94 89 94 99 100 100 99 98 99 100 99 100 100 100 100 100 98 97 92 89 87 83 77 66 69 76
93 89 93 97 98 99 100 100 100 98 100 99 100 100 100 100 99 98 93 88 80 73 69 63 52 46 90
91 94 94 91 97 98 100 100 99 99 100 99 95 98 98 98 97 96 91 91 83 75 60 79 79 74 92
77 79 76 74 77 95 100 99 99 98 98 98 92 93 93 93 91 81 79 65 73 79 81 84 96 94 92
80 78 76 66 57 71 88 100 100 96 92 99 87 84 75 68 71 68 66 66 83 92 93 94 94 92 90
75 73 71 66 48 41 45 76 94 96 90 89 76 70 71 78 59 66 72 89 94 95 95 96 94 97 93
68 61 59 52 55 38 36 40 52 72 88 92 93 81 83 89 84 73 67 94 97 94 87 91 95 98 96
73 69 65 50 40 36 40 45 46 46 50 62 76 75 73 77 93 79 83 83 92 92 87 85 92 95 95
78 77 70 47 43 47 51 64 67 75 56 62 68 72 70 69 83 85 77 88 93 97 90 81 94 95 96
74 69 64 61 57 62 63 75 88 89 94 83 68 75 78 86 94 74 87 88 88 90 99 92 81 81 84
82 79 75 75 72 74 76 88 94 93 92 93 99 95 88 60 57 74 84 84 86 78 80 93 85 70 66
90 83 78 75 80 85 89 88 94 92 90 94 99 97 97 94 74 71 90 86 92 95 78 84 81 69 66

GFSFLT2_925_rhum_126.txt.gz
RH
90 83 85 86 90 94 98 98 98 98 97 92 97 99 100 100 100 100 96 93 91 89 83 88 97 99 92
84 80 86 83 86 87 98 98 100 100 94 99 99 99 99 100 100 99 99 99 96 95 92 94 90 98 87
75 81 84 77 77 80 84 94 96 98 99 100 100 100 100 99 99 97 100 100 100 98 95 93 96 92 86
87 86 84 88 92 92 89 88 87 92 94 99 100 99 98 98 100 98 99 100 100 99 94 94 100 96 87
85 88 88 87 90 100 100 97 84 90 93 98 99 100 100 100 99 100 100 99 99 96 96 95 96 95 87
92 93 89 88 94 98 99 99 99 97 98 95 98 100 100 100 100 100 100 98 97 94 90 90 88 91 86
90 90 88 94 95 98 99 100 99 98 99 98 96 97 100 100 100 99 99 97 94 90 88 82 76 70 75
79 82 84 83 81 96 99 99 98 94 100 99 96 94 95 100 100 100 99 96 93 87 76 70 72 60 66
79 79 78 76 71 78 99 99 97 99 97 99 95 91 91 93 96 98 99 96 93 98 85 66 70 77 90
77 77 78 75 61 54 71 97 98 99 90 98 90 87 80 72 78 89 85 85 79 83 91 92 83 95 95
76 74 74 69 61 45 40 46 91 99 95 96 87 74 75 79 71 57 68 71 74 82 99 96 95 95 90
73 69 64 60 49 39 39 40 39 43 59 85 96 86 92 93 78 68 54 63 89 91 93 90 96 93 91
78 69 63 61 52 45 41 43 40 40 43 49 64 84 87 88 86 81 66 48 78 97 98 90 81 88 90
81 78 77 74 55 46 48 48 49 46 60 63 59 68 73 72 71 73 78 70 64 72 96 97 86 94 89
82 76 76 71 63 61 57 55 63 67 73 80 82 70 74 76 82 67 68 78 73 81 85 100 95 87 94
89 83 81 79 74 72 69 70 66 65 77 91 93 96 80 53 58 59 69 78 84 87 88 100 96 81 77
94 91 88 84 83 84 78 81 77 74 75 86 95 99 99 98 67 72 72 81 91 92 94 91 82 65 61

GFSFLT2_925_rhum_129.txt.gz
RH
95 93 90 88 88 86 81 82 94 99 97 99 96 97 99 100 100 95 100 96 92 89 88 85 92 95 91
86 86 90 80 73 73 75 83 96 97 99 100 99 99 100 100 100 100 100 99 97 94 90 93 96 94 92
79 77 82 78 72 73 78 83 85 87 92 94 100 99 100 99 99 100 100 100 99 100 96 95 100 95 88
79 86 84 84 85 91 90 88 81 83 84 87 91 97 99 100 99 99 100 100 100 100 100 97 98 97 89
81 85 86 87 87 91 96 98 95 96 87 87 87 99 99 99 100 100 100 100 100 100 97 98 100 100 91
80 85 87 86 87 92 97 99 96 98 94 90 92 93 100 100 100 100 99 99 99 99 99 98 97 96 94
73 79 86 86 91 95 96 99 99 94 93 96 94 92 96 100 100 100 99 99 99 97 93 91 90 89 91
72 76 82 84 84 83 97 99 99 98 97 100 95 90 88 94 99 100 99 99 98 96 93 89 82 75 70
76 78 77 76 74 74 92 99 95 93 96 99 96 90 86 87 92 98 99 100 100 99 92 84 76 75 68
76 77 76 75 70 59 62 96 98 97 92 98 94 84 87 81 58 82 94 98 98 96 97 98 83 73 77
78 74 74 73 68 55 45 46 66 98 95 95 92 85 75 78 77 71 64 67 70 72 79 95 98 95 91
78 73 71 68 60 50 43 38 39 42 50 74 89 90 87 97 87 75 58 50 53 68 79 94 95 95 95
77 73 66 60 59 52 41 36 36 38 42 43 50 66 92 100 86 76 68 53 52 66 92 97 93 87 93
82 79 72 72 69 51 43 42 45 41 50 61 66 66 65 70 77 71 69 73 62 61 69 94 98 93 82
92 84 76 77 75 59 56 61 60 53 50 62 84 88 77 68 70 55 55 67 63 72 78 70 75 94 92
95 88 79 78 76 73 72 73 66 57 58 68 94 99 86 55 64 55 62 62 63 73 90 96 84 62 89
93 92 88 85 86 85 81 82 80 74 68 76 92 99 94 98 55 69 82 77 78 89 96 99 87 61 65